TimeCST,TemperatureF,Dew PointF,Humidity,Sea Level PressureIn,VisibilityMPH,Wind Direction,Wind SpeedMPH,Gust SpeedMPH,PrecipitationIn,Events,Conditions,WindDirDegrees,DateUTC
12:15 AM,13.1,8.6,82,30.53,10.0,WNW,15.0,-,N/A,Snow,Light Snow,300,2014-02-06 06:15:00
12:35 AM,12.7,7.9,81,30.52,10.0,NW,11.5,-,N/A,Snow,Light Snow,310,2014-02-06 06:35:00
12:55 AM,12.4,7.7,82,30.52,10.0,NW,12.7,16.1,N/A,Snow,Light Snow,310,2014-02-06 06:55:00
1:15 AM,12.0,7.5,82,30.53,10.0,NW,13.8,-,N/A,Snow,Light Snow,310,2014-02-06 07:15:00
1:35 AM,11.3,6.3,80,30.52,10.0,NW,11.5,16.1,N/A,Snow,Light Snow,310,2014-02-06 07:35:00
1:55 AM,10.9,5.5,79,30.51,10.0,NW,12.7,-,N/A,Snow,Light Snow,320,2014-02-06 07:55:00
2:15 AM,10.4,5.0,79,30.51,10.0,NW,9.2,-,N/A,Snow,Light Snow,320,2014-02-06 08:15:00
2:35 AM,10.0,4.5,78,30.52,10.0,NW,10.4,-,N/A,,Mostly Cloudy,320,2014-02-06 08:35:00
2:55 AM,9.5,4.1,79,30.50,10.0,NW,11.5,-,N/A,,Mostly Cloudy,320,2014-02-06 08:55:00
3:15 AM,9.3,4.1,79,30.51,10.0,NW,9.2,-,N/A,Snow,Light Snow,310,2014-02-06 09:15:00
3:35 AM,9.3,3.9,79,30.52,10.0,NW,6.9,-,N/A,Snow,Light Snow,310,2014-02-06 09:35:00
3:55 AM,9.3,3.7,78,30.51,10.0,NW,10.4,-,N/A,Snow,Light Snow,310,2014-02-06 09:55:00
4:15 AM,9.3,3.2,76,30.52,10.0,NW,12.7,17.3,N/A,Snow,Light Snow,320,2014-02-06 10:15:00
4:35 AM,9.1,3.2,77,30.52,10.0,NW,6.9,-,N/A,Snow,Light Snow,310,2014-02-06 10:35:00
4:55 AM,8.6,3.2,79,30.52,10.0,NW,8.1,-,N/A,Snow,Light Snow,310,2014-02-06 10:55:00
5:35 AM,8.6,2.8,77,30.54,10.0,NW,9.2,-,N/A,Snow,Light Snow,320,2014-02-06 11:35:00
5:55 AM,8.4,2.8,78,30.54,10.0,WNW,9.2,-,N/A,Snow,Light Snow,300,2014-02-06 11:55:00
6:15 AM,8.1,2.1,77,30.54,10.0,NW,8.1,-,N/A,Snow,Light Snow,310,2014-02-06 12:15:00
6:35 AM,7.7,1.9,77,30.55,10.0,NW,10.4,-,N/A,Snow,Light Snow,310,2014-02-06 12:35:00
6:55 AM,7.7,1.9,77,30.55,10.0,NW,6.9,-,N/A,Snow,Light Snow,310,2014-02-06 12:55:00
7:15 AM,7.5,1.8,77,30.55,10.0,WNW,12.7,-,N/A,Snow,Light Snow,290,2014-02-06 13:15:00
7:35 AM,7.5,1.6,77,30.56,10.0,WNW,11.5,-,N/A,Snow,Light Snow,300,2014-02-06 13:35:00
7:55 AM,6.8,0.5,75,30.56,10.0,WNW,12.7,-,N/A,Snow,Light Snow,300,2014-02-06 13:55:00
8:15 AM,6.8,0.3,75,30.57,10.0,WNW,11.5,-,N/A,Snow,Light Snow,300,2014-02-06 14:15:00
8:55 AM,5.9,-0.4,75,30.58,10.0,WNW,10.4,-,N/A,Snow,Light Snow,300,2014-02-06 14:55:00
9:15 AM,4.5,-2.2,74,30.59,10.0,NW,11.5,-,N/A,,Mostly Cloudy,310,2014-02-06 15:15:00
9:35 AM,4.8,-2.6,72,30.60,10.0,WNW,10.4,-,N/A,,Scattered Clouds,290,2014-02-06 15:35:00
9:55 AM,5.0,-2.7,70,30.60,10.0,WNW,11.5,-,N/A,,Clear,300,2014-02-06 15:55:00
10:15 AM,5.9,-2.6,68,30.60,10.0,West,10.4,-,N/A,,Clear,280,2014-02-06 16:15:00
10:35 AM,7.5,-1.5,67,30.60,10.0,NW,5.8,-,N/A,,Clear,310,2014-02-06 16:35:00
10:55 AM,8.1,-1.7,65,30.59,10.0,NW,8.1,-,N/A,,Clear,310,2014-02-06 16:55:00
11:15 AM,8.4,-1.5,64,30.59,10.0,NW,9.2,-,N/A,,Clear,310,2014-02-06 17:15:00
11:35 AM,8.6,-1.1,65,30.58,10.0,NNW,10.4,-,N/A,,Clear,330,2014-02-06 17:35:00
11:55 AM,8.6,-1.8,63,30.57,10.0,NW,10.4,16.1,N/A,,Clear,310,2014-02-06 17:55:00
12:15 PM,8.8,-2.0,62,30.57,10.0,NW,11.5,17.3,N/A,,Clear,310,2014-02-06 18:15:00
12:35 PM,9.0,-1.7,62,30.56,10.0,NW,11.5,-,N/A,,Clear,310,2014-02-06 18:35:00
12:55 PM,8.6,-2.2,62,30.54,10.0,NW,11.5,-,N/A,,Clear,310,2014-02-06 18:55:00
1:15 PM,9.1,-1.7,62,30.53,10.0,WNW,13.8,-,N/A,,Clear,300,2014-02-06 19:15:00
1:35 PM,9.0,-2.4,60,30.53,10.0,WNW,10.4,-,N/A,,Clear,300,2014-02-06 19:35:00
1:55 PM,9.5,-1.8,60,30.52,10.0,WNW,11.5,-,N/A,,Clear,300,2014-02-06 19:55:00
2:15 PM,9.5,-2.4,59,30.52,10.0,NW,10.4,-,N/A,,Clear,310,2014-02-06 20:15:00
2:35 PM,9.7,-2.9,57,30.52,10.0,NW,8.1,-,N/A,,Clear,310,2014-02-06 20:35:00
2:55 PM,9.5,-3.1,57,30.52,10.0,NW,10.4,-,N/A,,Clear,310,2014-02-06 20:55:00
3:15 PM,9.9,-3.3,55,30.52,10.0,WNW,10.4,-,N/A,,Scattered Clouds,290,2014-02-06 21:15:00
3:35 PM,10.0,-2.7,56,30.52,10.0,WNW,9.2,17.3,N/A,,Scattered Clouds,300,2014-02-06 21:35:00
3:55 PM,9.7,-3.1,56,30.52,10.0,WNW,10.4,-,N/A,,Scattered Clouds,290,2014-02-06 21:55:00
4:15 PM,9.3,-3.6,56,30.52,10.0,WNW,9.2,-,N/A,,Clear,300,2014-02-06 22:15:00
4:35 PM,9.3,-3.8,55,30.52,10.0,WNW,9.2,-,N/A,,Clear,290,2014-02-06 22:35:00
5:15 PM,7.9,-4.2,58,30.52,10.0,NW,6.9,-,N/A,,Clear,310,2014-02-06 23:15:00
5:35 PM,7.5,-3.6,60,30.53,10.0,NW,4.6,-,N/A,,Scattered Clouds,310,2014-02-06 23:35:00
5:55 PM,7.0,-3.6,62,30.52,10.0,NW,5.8,-,N/A,,Mostly Cloudy,320,2014-02-06 23:55:00
6:15 PM,6.1,-4.0,63,30.53,10.0,NW,6.9,-,N/A,,Scattered Clouds,310,2014-02-07 00:15:00
6:35 PM,6.4,-4.0,62,30.53,10.0,NW,6.9,-,N/A,,Scattered Clouds,320,2014-02-07 00:35:00
6:55 PM,5.9,-4.0,64,30.53,10.0,NW,4.6,-,N/A,,Mostly Cloudy,310,2014-02-07 00:55:00
7:15 PM,5.9,-4.0,64,30.53,10.0,NW,6.9,-,N/A,,Mostly Cloudy,310,2014-02-07 01:15:00
7:35 PM,6.3,-3.5,64,30.52,10.0,NW,4.6,-,N/A,,Overcast,320,2014-02-07 01:35:00
7:55 PM,5.9,-4.0,64,30.51,10.0,NNW,3.5,-,N/A,,Overcast,330,2014-02-07 01:55:00
8:15 PM,5.2,-4.0,66,30.52,10.0,NNW,3.5,-,N/A,,Scattered Clouds,330,2014-02-07 02:15:00
8:35 PM,4.8,-4.4,66,30.51,10.0,NW,3.5,-,N/A,,Clear,320,2014-02-07 02:35:00
8:55 PM,4.6,-4.4,66,30.51,10.0,NNW,3.5,-,N/A,,Clear,330,2014-02-07 02:55:00
9:15 PM,3.0,-5.1,69,30.52,10.0,NW,3.5,-,N/A,,Clear,320,2014-02-07 03:15:00
9:35 PM,3.7,-4.9,67,30.51,10.0,NNW,3.5,-,N/A,,Clear,330,2014-02-07 03:35:00
9:55 PM,1.6,-6.3,69,30.50,10.0,Calm,Calm,-,N/A,,Clear,0,2014-02-07 03:55:00
10:15 PM,-3.3,-8.0,80,30.52,10.0,Calm,Calm,-,N/A,,Clear,0,2014-02-07 04:15:00
10:35 PM,-4.9,-9.0,82,30.52,10.0,Calm,Calm,-,N/A,,Clear,0,2014-02-07 04:35:00
10:55 PM,-4.5,-8.3,84,30.52,10.0,Calm,Calm,-,N/A,,Clear,0,2014-02-07 04:55:00
11:15 PM,-2.6,-6.5,83,30.50,10.0,Calm,Calm,-,N/A,,Clear,0,2014-02-07 05:15:00
11:35 PM,-4.5,-8.7,82,30.50,10.0,Calm,Calm,-,N/A,,Clear,0,2014-02-07 05:35:00